Weather in Nairobi

Kenya     1°16′21″S   36°49′40″E
temp.,
°C
wind,
m/s
gust,
m/s
humid.,
%
clouds,
%
prec.,
mm/h
press.,
hPa
HPBL,
m
11 may, tue
tue1100:00+15ssw0195100 0.0 101815
03:00+14nnw119481 0.0 101714
06:00+14ese1195100 0.0 101718
09:00+17ese118381 0.0 1018461
12:00+21sse116795 0.4 10161040
15:00+20sse327570 2.2 1013885
18:00+17sse2491100 2.9 1014227
21:00+16sse2596100 4.4 1017353
12 may, wed
wed1200:00+15nne1496100 4.3 1018314
03:00+14nne1395100 6.4 1017189
06:00+14ene1296100 0.2 1018108
09:00+15wsw0190100 0.3 1019202
12:00+19se117896 0.5 1017817
15:00+19ene127799 1.9 1014770
18:00+16nnw1192100 3.3 1015119
21:00+15wsw3796100 6.1 1018439
13 may, thu
thu1300:00+14w3796100 4.1 1018300
03:00+14wnw2495100 4.7 1017158
06:00+14w2394100 0.1 1017107
09:00+16nne018597 0.1 1019279
12:00+21ese136496 0.1 10161026
15:00+21sse1174100 3.6 1013749
18:00+18e2290100 7.4 101476
21:00+16ne1397100 11.8 1017111
14 may, fri
fri1400:00+16ne1297100 1.9 101799
03:00+15ene2398100 2.3 1015214
06:00+15wsw1197100 0.1 101624
09:00+17e119193 0.3 1018390
12:00+19ese227677 0.3 1016807
15:00+20ese3370100 1.1 1013979
18:00+17e249294 1.8 1015239
21:00+16ne269596 3.3 1017263
15 may, sat
sat1500:00+16ene269498 0.6 1018314
03:00+14n119494 0.6 101618
06:00+13e019634 0.0 101712
09:00+17ese228473 0.0 1018486
12:00+21se326589 0.1 10161251
15:00+21sse336286 0.1 10121122
18:00+19ese247496 0.2 1013225
21:00+18ene127583 0.2 101579